Hourly Data Report for June 18, 2021

CARIBOU POINT (AUT)
NOVA SCOTIA
Current Station Operator: ECCC - MSC

45°46'00.000" N
62°41'00.000" W
2.40 m
8200774
71415
WBK

Download Data

Hourly Data (June 2021)
Hourly Data Report for June 18, 2021
TIME
LST
Temp Definition
°C
Dew Point Definition
°C
Rel Hum Definition
%
Precip. Amount Definition
mm

Wind Dir Definition
10's deg

Wind Spd Definition
km/h
Visibility Definition
km
Stn Press Definition
kPa
Hmdx Definition


Wind Chill Definition


Weather Definition


00:00 15.6 6.5 55 0.0 23 9   101.17     LegendNANA
01:00 13.7 7.0 64 0.0 21 10   101.20     LegendNANA
02:00 12.6 8.1 74 0.0 22 11   101.19     LegendNANA
03:00 12.4 8.6 78 0.0 22 15   101.25     LegendNANA
04:00 12.4 8.3 76 0.0 22 14   101.30     LegendNANA
05:00 12.3 8.2 76 0.0 22 13   101.32     LegendNANA
06:00 12.8 8.8 77 0.0 22 12   101.36     LegendNANA
07:00 13.9 9.3 74 0.0 22 11   101.41     LegendNANA
08:00 17.0 11.3 69 0.0 21 8   101.40     LegendNANA
09:00 19.8 12.0 61 0.0 21 4   101.38     LegendNANA
10:00 21.5 12.1 55 0.0 20 4   101.35     LegendNANA
11:00 17.3 13.3 78 0.0 6 11   101.33     LegendNANA
12:00 18.5 13.4 72 0.0 8 12   101.30     LegendNANA
13:00 18.6 14.1 75 0.0 11 16   101.27     LegendNANA
14:00 19.5 14.6 74 0.0 11 10   101.24     LegendNANA
15:00 18.5 13.8 74 0.0 13 13   101.20     LegendNANA
16:00 18.3 13.2 72 0.0 4 11   101.16     LegendNANA
17:00 18.1 12.6 70 0.0 7 14   101.11     LegendNANA
18:00 17.7 13.3 75 0.0 11 9   101.10     LegendNANA
19:00 17.7 13.4 76 0.0 14 6   101.12     LegendNANA
20:00 20.5 11.8 57 0.0 22 7   101.15     LegendNANA
21:00 18.7 9.1 54 0.0 21 10   101.24     LegendNANA
22:00 17.5 8.9 57 0.0 24 10   101.19     LegendNANA
23:00 16.4 9.1 62 0.0 23 10   101.18     LegendNANA

Notes on Data Quality.

Legend

  • E = Estimated
  • M = Missing
  • NA = Not Available*
  • [empty] = Indicates an unobserved value
Date modified: